Location: Unspecified
(0.0000°N, 0.0000°E)
Time: 15:50:05
(UTC+00:00)

CZ-3B DEB - Pass Details

Date: 18 November 2025
Orbit: 513 x 39779 km, 23.4° (Epoch: 12 December)

Event Time Altitude Azimuth Distance (km) Brightness Sun altitude
Rises 18:12:53 0° 247° (WSW) 8,472 ? -6.5°
Reaches altitude 10° 18:16:27 10° 247° (WSW) 8,535 ? -7.3°
Maximum altitude 19:40:50 72° 287° (WNW) 22,796 ? -27.1°
Enters shadow 03:02:41 17° 295° (WNW) 32,747 ? -37.9°
Exits shadow 04:31:12 17° 298° (WNW) 18,710 ? -17.4°
Drops below altitude 10° 05:31:47 10° 104° (ESE) 2,867 ? -3.2°
Sets 05:33:15 0° 106° (ESE) 3,434 ? -2.9°
